Regional Weather Roundup
Issued by NWS

Home | Current Version | Previous Version | Graphics & Text | Print | Product List | Glossary On
Versions: 1 2 3 4 5 6 7 8 9 10 11 12 13 14 15 16 17 18 19 20 21 22 23 24 25 26 27 28
000
ASUS45 KCYS 231110
RWRWY

WYOMING REGIONAL WEATHER ROUNDUP
NATIONAL WEATHER SERVICE CHEYENNE WY
500 AM MDT WED MAY 23 2018

NOTE:  "FAIR" INDICATES FEW OR NO CLOUDS BELOW 12,000 FEET
WITH NO SIGNIFICANT WEATHER AND/OR OBSTRUCTIONS TO VISIBILITY.

WYZ001-231200-
YELLOWSTONE NATIONAL PARK

CITY           SKY/WX    TMP DP  RH WIND       PRES   REMARKS
LK YELLOWSTONE   N/A     40  39  97 CALM      30.07S
W YELLOWSTONE  NOT AVBL

$$
WYZ002>013-054>058-071-098>099-231200-
NORTHERN WYOMING

CITY           SKY/WX    TMP DP  RH WIND       PRES   REMARKS
JACKSON        RAIN      45  45 100 CALM      30.03S
CODY           LGT RAIN  50  49  96 CALM      29.97
GREYBULL       CLOUDY    55  55 100 W5        29.92S
WORLAND        LGT RAIN  54  53  97 NW5       29.93S
SHERIDAN       MOCLDY    54  53  97 S8        29.93R
BUFFALO        CLOUDY    53  49  86 E7        29.95R
GILLETTE       CLOUDY    55  53  93 CALM      29.95R
NEWCASTLE      FAIR      50  50 100 NE3G18    29.97R

$$
WYZ014>020-022>026-101>103-231200-
CENTRAL WYOMING

CITY           SKY/WX    TMP DP  RH WIND       PRES   REMARKS
BIG PINEY      MOCLDY    44  42  93 SE3       30.04S
PINEDALE       CLOUDY    43  43 100 CALM      30.06R
DUBOIS         CLOUDY    37  36  93 W7        30.03S WCI  32
LANDER         FOG       44  44 100 W7        29.97S VSB 1/2
RIVERTON       CLOUDY    49  47  93 W3        29.99S
CASPER         CLOUDY    51  50  96 SW8       29.99R
DOUGLAS        FOG       47  47 100 S5        29.99S VSB 1/4

$$
WYZ021-027>030-104>119-231200-
SOUTHERN WYOMING

CITY           SKY/WX    TMP DP  RH WIND       PRES   REMARKS
EVANSTON       FAIR      43  39  86 S3        30.04S
KEMMERER       FAIR      37  36  93 N6        30.05S WCI  33
FORT BRIDGER   FAIR      39  38  93 S6        30.08R
ROCK SPRINGS   FAIR      41  39  93 S5        30.05R
DIXON          FAIR      36  34  92 E3        30.10R
RAWLINS        FAIR      35  33  92 CALM      30.06F
SARATOGA       FAIR      36  36 100 SW5       30.09R WCI  32
LARAMIE        FAIR      37  36  96 S10       30.08R WCI  30
CHEYENNE       FAIR      45  43  93 W8        30.02R
TORRINGTON     FAIR      51  51 100 NW3       29.94S
PINE BLUFFS    FAIR      45  45 100 CALM      30.01R

$$




USA.gov is the U.S. government's official web portal to all federal, state and local government web resources and services.